Weather History for Kansas City International, MO

Change the Weather History Date:

Sunday, May 26, 2013

  Actual Average Record
Temperature  
Mean Temperature 76 °F 68 °F  
Max Temperature 84 °F 78 °F 92 °F (1985)
Min Temperature 68 °F 57 °F 42 °F (1992)
Degree Days  
Heating Degree Days 0 2  
Month to date heating degree days 156 97  
Since 1 July heating degree days 5185 5117  
Cooling Degree Days 11 4  
Month to date cooling degree days 67 63  
Year to date cooling degree days 80 91  
Growing Degree Days 26 (Base 50)    
Moisture  
Dew Point 65 °F    
Average Humidity 71    
Maximum Humidity 84    
Minimum Humidity 58    
Precipitation  
Precipitation 0.00 in 0.16 in 3.35 in (1996)
Month to date precipitation 2.91 4.39  
Year to date precipitation 11.38 12.99  
Snow  
Snow 0.00 in 0.00 in 0.00 in ()
Month to date snowfall 0.5 0.0  
Since 1 July snowfall 31.8 18.8  
Snow Depth 0.00 in    
Sea Level Pressure  
Sea Level Pressure 29.96 in    
Wind  
Wind Speed 13 mph (South)    
Max Wind Speed 23 mph    
Max Gust Speed 26 mph    
Visibility 10 miles    
Events      
T = Trace of Precipitation, MM = Missing Value Source: NWS Daily Summary

Daily Weather History Graph

Daily Weather History Graph

Search for Another Location

Airport:

Trip Planner

Search our weather history database for the weather conditions in past years. The results will help you decide how hot, cold, wet, or windy it might be!

Date:

Astronomy

May. 26, 2013 Rise Set
Actual Time 5:57 AM CDT 8:35 PM CDT
Civil Twilight 5:25 AM CDT 9:06 PM CDT
Nautical Twilight 4:46 AM CDT 9:45 PM CDT
Astronomical Twilight 4:03 AM CDT 10:29 PM CDT
Moon 10:23 PM CDT (5/26) 7:27 AM CDT (5/26)
Length of Visible Light 15h 40m
Length of Day
14h 38m
Waning Gibbous, 96% of the Moon is Illuminated
May 26
Waning Gibbous
May 31
Last Quarter
Jun 8
New
Jun 16
First Quarter
Jun 23
Full

Hourly Weather History & Observations

Time (CDT) Temp. Heat Index Dew Point Humidity Pressure Visibility Wind Dir Wind Speed Gust Speed Precip Events Conditions
12:53 AM 70.0 °F - 63.0 °F 78% 30.03 in 10.0 mi South 9.2 mph - N/A   Scattered Clouds
1:53 AM 70.0 °F - 63.0 °F 78% 30.01 in 10.0 mi SSE 8.1 mph - N/A   Scattered Clouds
2:53 AM 69.1 °F - 63.0 °F 81% 30.02 in 10.0 mi South 8.1 mph - N/A   Mostly Cloudy
3:53 AM 70.0 °F - 64.0 °F 81% 30.01 in 10.0 mi South 8.1 mph - N/A   Overcast
4:53 AM 69.1 °F - 63.0 °F 81% 29.99 in 10.0 mi South 9.2 mph - N/A   Scattered Clouds
5:53 AM 69.1 °F - 63.0 °F 81% 29.99 in 10.0 mi South 10.4 mph - N/A   Overcast
6:16 AM 69.8 °F - 64.4 °F 83% 30.02 in 10.0 mi South 10.4 mph - N/A   Overcast
6:53 AM 70.0 °F - 64.0 °F 81% 30.00 in 10.0 mi SSE 11.5 mph - N/A   Overcast
7:53 AM 71.1 °F - 64.9 °F 81% 29.99 in 10.0 mi South 11.5 mph - N/A   Overcast
8:53 AM 73.0 °F - 64.9 °F 76% 29.99 in 10.0 mi South 18.4 mph 24.2 mph N/A   Overcast
9:53 AM 75.0 °F - 64.9 °F 71% 30.00 in 10.0 mi South 16.1 mph 23.0 mph N/A   Overcast
10:53 AM 75.0 °F - 66.0 °F 73% 29.98 in 10.0 mi South 12.7 mph - N/A   Overcast
11:53 AM 79.0 °F - 66.9 °F 66% 29.98 in 10.0 mi SSW 16.1 mph - N/A   Overcast
12:53 PM 80.1 °F 82.1 °F 66.0 °F 62% 29.97 in 9.0 mi South 19.6 mph 26.5 mph N/A   Overcast
1:00 PM 80.6 °F 82.7 °F 66.2 °F 61% 29.99 in 9.0 mi SSW 17.3 mph 25.3 mph N/A   Mostly Cloudy
1:53 PM 82.0 °F 84.5 °F 66.9 °F 60% 29.96 in 10.0 mi SSW 20.7 mph 24.2 mph N/A   Overcast
2:53 PM 82.0 °F 84.5 °F 66.9 °F 60% 29.94 in 10.0 mi South 16.1 mph 23.0 mph N/A   Mostly Cloudy
3:53 PM 82.0 °F 84.1 °F 66.0 °F 58% 29.92 in 10.0 mi South 17.3 mph 24.2 mph N/A   Mostly Cloudy
4:53 PM 82.0 °F 84.1 °F 66.0 °F 58% 29.90 in 10.0 mi SSW 17.3 mph 25.3 mph N/A   Overcast
5:53 PM 81.0 °F 83.0 °F 66.0 °F 60% 29.89 in 10.0 mi SSW 12.7 mph - N/A   Overcast
6:53 PM 80.1 °F 82.3 °F 66.9 °F 64% 29.87 in 10.0 mi South 16.1 mph - N/A   Mostly Cloudy
7:53 PM 79.0 °F - 66.0 °F 64% 29.88 in 9.0 mi South 12.7 mph - N/A   Mostly Cloudy
8:53 PM 77.0 °F - 66.0 °F 69% 29.88 in 10.0 mi South 10.4 mph - N/A   Mostly Cloudy
9:53 PM 77.0 °F - 64.9 °F 66% 29.93 in 10.0 mi SSE 10.4 mph - N/A   Mostly Cloudy
10:53 PM 75.9 °F - 64.9 °F 69% 29.92 in 10.0 mi South 10.4 mph 19.6 mph N/A   Overcast
11:53 PM 73.4 °F - 64.4 °F 73% 29.90 in 10.0 mi South 11.5 mph - N/A   Mostly Cloudy